Location: Abraham Lincoln Continuation High School
(33.9711°N, 117.3662°W)
Time: 07:32:53
(UTC+00:00)

Cosmos 2285 Rocket - Pass Details

Date: 21 September 2020
Orbit: 970 x 1000 km, 74.0° (Epoch: 26 October)

Event Time Altitude Azimuth Distance (km) Brightness Sun altitude
Rises 03:22:51 0° 191° (S) 3,646 7.0 -20.3°
Reaches altitude 10° 03:25:22 10° 189° (S) 2,703 6.3 -20.8°
Maximum altitude 03:31:37 76° 105° (ESE) 1,002 3.8 -22.0°
Drops below altitude 10° 03:37:56 10° 20° (NNE) 2,733 6.3 -23.3°
Sets 03:40:29 0° 19° (NNE) 3,688 7.0 -23.8°
